| time (UTC) | temp F | wind direction | speed knots | gust knots | rain 1hr in | rain 24hr in | rain mn in | humidity % | barometer mb |
| 20260505223835 | 49 | 49 | 4.3 | 9.6 | 0.00 | 0.00 | 0.00 | 84 | 1013.4 |
| 20260505223649 | 49 | 48 | 4.3 | 9.6 | 0.00 | 0.00 | 0.00 | 84 | 1013.4 |
| 20260505222834 | 49 | 11 | 3.5 | 8.7 | 0.00 | 0.00 | 0.00 | 83 | 1013.5 |
| 20260505222335 | 49 | 48 | 4.3 | 11.3 | 0.00 | 0.00 | 0.00 | 83 | 1013.5 |
| 20260505221836 | 49 | 18 | 5.2 | 11.3 | 0.00 | 0.00 | 0.00 | 83 | 1013.4 |
| 20260505221335 | 49 | 44 | 6.1 | 12.2 | 0.00 | 0.00 | 0.00 | 82 | 1013.5 |
| 20260505220833 | 50 | 63 | 4.3 | 12.2 | 0.00 | 0.00 | 0.00 | 82 | 1013.5 |
| 20260505220651 | 50 | 39 | 5.2 | 10.4 | 0.00 | 0.00 | 0.00 | 82 | 1013.5 |
| 20260505220231 | 50 | 58 | 3.5 | 10.4 | 0.00 | 0.00 | 0.00 | 82 | 1013.5 |
| 20260505215331 | 50 | 56 | 5.2 | 11.3 | 0.00 | 0.00 | 0.00 | 81 | 1013.4 |
| 20260505214833 | 50 | 0 | 5.2 | 11.3 | 0.00 | 0.00 | 0.00 | 81 | 1013.3 |
| 20260505214333 | 50 | 47 | 4.3 | 8.7 | 0.00 | 0.00 | 0.00 | 81 | 1013.3 |
| 20260505213834 | 50 | 55 | 5.2 | 11.3 | 0.00 | 0.00 | 0.00 | 81 | 1013.3 |
| 20260505213332 | 50 | 58 | 5.2 | 11.3 | 0.00 | 0.00 | 0.00 | 81 | 1013.3 |
| 20260505212833 | 50 | 54 | 3.5 | 11.3 | 0.00 | 0.00 | 0.00 | 80 | 1013.3 |
| 20260505212331 | 50 | 354 | 6.1 | 11.3 | 0.00 | 0.00 | 0.00 | 80 | 1013.3 |
| 20260505211830 | 51 | 52 | 6.1 | 11.3 | 0.00 | 0.00 | 0.00 | 80 | 1013.3 |
| 20260505211329 | 51 | 32 | 4.3 | 10.4 | 0.00 | 0.00 | 0.00 | 80 | 1013.2 |
| 20260505210830 | 51 | 49 | 6.1 | 10.4 | 0.00 | 0.00 | 0.00 | 80 | 1013.3 |
| 20260505210330 | 51 | 54 | 4.3 | 11.3 | 0.00 | 0.00 | 0.00 | 80 | 1013.1 |
| 20260505205831 | 51 | 54 | 6.1 | 11.3 | 0.00 | 0.00 | 0.00 | 79 | 1013.2 |
| 20260505205330 | 51 | 38 | 5.2 | 11.3 | 0.00 | 0.00 | 0.00 | 79 | 1013.2 |
| 20260505204948 | 51 | 32 | 5.2 | 12.2 | 0.00 | 0.00 | 0.00 | 78 | 1013.0 |
| 20260505204919 | 51 | 62 | 6.1 | 11.3 | 0.00 | 0.00 | 0.00 | 79 | 1013.1 |
| 20260505203826 | 52 | 47 | 8.7 | 12.2 | 0.00 | 0.00 | 0.00 | 78 | 1013.0 |
| 20260505203326 | 52 | 62 | 7.0 | 12.2 | 0.00 | 0.00 | 0.00 | 78 | 1013.0 |
| 20260505202826 | 52 | 62 | 4.3 | 13.0 | 0.00 | 0.00 | 0.00 | 78 | 1013.0 |
| 20260505202324 | 52 | 79 | 5.2 | 13.0 | 0.00 | 0.00 | 0.00 | 77 | 1012.9 |
| 20260505201824 | 53 | 59 | 7.0 | 13.0 | 0.00 | 0.00 | 0.00 | 77 | 1012.9 |
| 20260505201645 | 53 | 31 | 3.5 | 12.2 | 0.00 | 0.00 | 0.00 | 76 | 1012.9 |
| 20260505200826 | 53 | 55 | 5.2 | 12.2 | 0.00 | 0.00 | 0.00 | 76 | 1012.9 |
| 20260505200322 | 53 | 54 | 4.3 | 10.4 | 0.00 | 0.00 | 0.00 | 76 | 1012.8 |
| 20260505195828 | 53 | 56 | 5.2 | 9.6 | 0.00 | 0.00 | 0.00 | 75 | 1012.7 |
| 20260505195323 | 53 | 65 | 2.6 | 8.7 | 0.00 | 0.00 | 0.00 | 75 | 1012.5 |
| 20260505194822 | 53 | 30 | 3.5 | 7.8 | 0.00 | 0.00 | 0.00 | 75 | 1012.6 |
| 20260505194323 | 53 | 39 | 3.5 | 10.4 | 0.00 | 0.00 | 0.00 | 74 | 1012.5 |
| 20260505193824 | 53 | 39 | 4.3 | 12.2 | 0.00 | 0.00 | 0.00 | 74 | 1012.4 |
| 20260505193522 | 54 | 63 | 4.3 | 10.4 | 0.00 | 0.00 | 0.00 | 73 | 1012.3 |
| 20260505193435 | 54 | 55 | 3.5 | 12.2 | 0.00 | 0.00 | 0.00 | 73 | 1012.4 |
| 20260505192321 | 54 | 41 | 6.1 | 12.2 | 0.00 | 0.00 | 0.00 | 73 | 1012.2 |
| 20260505191820 | 54 | 44 | 7.0 | 12.2 | 0.00 | 0.00 | 0.00 | 73 | 1012.2 |
| 20260505191322 | 54 | 41 | 6.1 | 13.0 | 0.00 | 0.00 | 0.00 | 73 | 1012.1 |
| 20260505190823 | 54 | 42 | 6.1 | 13.0 | 0.00 | 0.00 | 0.00 | 74 | 1012.1 |
| 20260505190320 | 54 | 49 | 6.1 | 11.3 | 0.00 | 0.00 | 0.00 | 74 | 1012.0 |
| 20260505185822 | 54 | 56 | 5.2 | 12.2 | 0.00 | 0.00 | 0.00 | 74 | 1012.0 |
| 20260505185320 | 55 | 61 | 5.2 | 12.2 | 0.00 | 0.00 | 0.00 | 74 | 1012.0 |
| 20260505184820 | 55 | 62 | 6.1 | 11.3 | 0.00 | 0.00 | 0.00 | 74 | 1012.0 |
| 20260505184320 | 55 | 42 | 5.2 | 11.3 | 0.00 | 0.00 | 0.00 | 74 | 1012.0 |
| 20260505183826 | 55 | 51 | 6.1 | 12.2 | 0.00 | 0.00 | 0.00 | 75 | 1011.9 |
| 20260505183326 | 55 | 56 | 7.8 | 12.2 | 0.00 | 0.00 | 0.00 | 74 | 1011.9 |
| 20260505182826 | 55 | 58 | 5.2 | 9.6 | 0.00 | 0.00 | 0.00 | 75 | 1011.8 |
| 20260505182326 | 56 | 56 | 6.1 | 11.3 | 0.00 | 0.00 | 0.00 | 75 | 1011.8 |
| 20260505181818 | 56 | 34 | 4.3 | 11.3 | 0.00 | 0.00 | 0.00 | 74 | 1011.8 |
| 20260505181319 | 56 | 59 | 5.2 | 10.4 | 0.00 | 0.00 | 0.00 | 74 | 1011.7 |
| 20260505181202 | 56 | 71 | 4.3 | 10.4 | 0.00 | 0.00 | 0.00 | 74 | 1011.8 |
| 20260505180313 | 56 | 65 | 5.2 | 8.7 | 0.00 | 0.00 | 0.00 | 74 | 1011.7 |
| 20260505175811 | 56 | 59 | 2.6 | 7.8 | 0.00 | 0.00 | 0.00 | 74 | 1011.8 |
| 20260505175306 | 57 | 51 | 4.3 | 7.8 | 0.00 | 0.00 | 0.00 | 73 | 1011.7 |
| 20260505174809 | 57 | 51 | 2.6 | 7.8 | 0.00 | 0.00 | 0.00 | 73 | 1011.7 |
| 20260505174303 | 57 | 48 | 3.5 | 7.8 | 0.00 | 0.00 | 0.00 | 73 | 1011.7 |
| 20260505173802 | 57 | 51 | 2.6 | 6.1 | 0.00 | 0.00 | 0.00 | 71 | 1011.8 |
| 20260505173300 | 57 | 38 | 3.5 | 6.1 | 0.00 | 0.00 | 0.00 | 71 | 1011.7 |
| 20260505173159 | 57 | 65 | 2.6 | 4.3 | 0.00 | 0.00 | 0.00 | 70 | 1011.7 |
| 20260505172308 | 58 | 27 | 1.7 | 3.5 | 0.00 | 0.00 | 0.00 | 70 | 1011.6 |
| 20260505171804 | 58 | 45 | 1.7 | 1.7 | 0.00 | 0.00 | 0.00 | 70 | 1011.6 |
| 20260505171259 | 58 | 27 | 0.0 | 1.7 | 0.00 | 0.00 | 0.00 | 68 | 1011.7 |
| 20260505170758 | 58 | 28 | 1.7 | 1.7 | 0.00 | 0.00 | 0.00 | 68 | 1011.7 |
| 20260505170309 | 0 | 13 | 0.0 | 0.9 | 0.00 | 0.00 | 0.00 | 1011.7 | |
| 20260505165757 | 58 | 68 | 0.9 | 1.7 | 0.00 | 0.00 | 0.00 | 68 | 1011.7 |
| 20260505165246 | 58 | 68 | 0.9 | 3.5 | 0.00 | 0.00 | 0.00 | 68 | 1011.7 |
| 20260505164743 | 58 | 73 | 1.7 | 3.5 | 0.00 | 0.00 | 0.00 | 68 | 1011.7 |
| 20260505164539 | 58 | 54 | 1.7 | 5.2 | 0.00 | 0.00 | 0.00 | 68 | 1011.7 |
| 20260505163742 | 59 | 52 | 3.5 | 5.2 | 0.00 | 0.00 | 0.00 | 67 | 1011.6 |
| 20260505163242 | 59 | 45 | 2.6 | 5.2 | 0.00 | 0.00 | 0.00 | 68 | 1011.7 |
| 20260505162739 | 59 | 62 | 3.5 | 6.1 | 0.00 | 0.00 | 0.00 | 68 | 1011.8 |
| 20260505162241 | 59 | 35 | 3.5 | 6.1 | 0.00 | 0.00 | 0.00 | 67 | 1011.7 |
| 20260505161739 | 59 | 48 | 3.5 | 6.1 | 0.00 | 0.00 | 0.00 | 67 | 1011.6 |
| 20260505161242 | 59 | 51 | 1.7 | 5.2 | 0.00 | 0.00 | 0.00 | 67 | 1011.6 |
| 20260505161054 | 60 | 59 | 3.5 | 4.3 | 0.00 | 0.00 | 0.00 | 67 | 1011.6 |
| 20260505160239 | 60 | 28 | 3.5 | 4.3 | 0.00 | 0.00 | 0.00 | 68 | 1011.6 |
| 20260505153234 | 60 | 27 | 2.6 | 3.5 | 0.00 | 0.00 | 0.00 | 65 | 1011.7 |
| 20260505153101 | 60 | 32 | 0.9 | 2.6 | 0.00 | 0.00 | 0.00 | 65 | 1011.8 |
| 20260505152232 | 60 | 48 | 1.7 | 3.5 | 0.00 | 0.00 | 0.00 | 65 | 1011.8 |
| 20260505151732 | 0 | 42 | 0.9 | 3.5 | 0.00 | 0.00 | 0.00 | 1011.8 | |
| 20260505151535 | 0 | 354 | 1.7 | 2.6 | 0.00 | 0.00 | 0.00 | 1011.8 | |
| 20260505150739 | 61 | 354 | 1.7 | 2.6 | 0.00 | 0.00 | 0.00 | 62 | 1011.8 |
| 20260505150249 | 61 | 18 | 1.7 | 3.5 | 0.00 | 0.00 | 0.00 | 62 | 1011.8 |
| 20260505140247 | 63 | 87 | 1.7 | 2.6 | 0.00 | 0.00 | 0.00 | 63 | 1012.1 |
| 20260505140235 | 63 | 87 | 0.9 | 2.6 | 0.00 | 0.00 | 0.00 | 63 | 1012.0 |
| 20260505130229 | 0 | 58 | 1.7 | 6.1 | 0.00 | 0.00 | 0.00 | 1012.3 | |
| 20260505124730 | 0 | 113 | 4.3 | 5.2 | 0.00 | 0.00 | 0.00 | 1012.3 | |
| 20260505124533 | 65 | 0.0 | 0.0 | 0.00 | 0.00 | 0.00 | 63 | 1012.3 | |
| 20260505123729 | 65 | 0.0 | 0.0 | 0.00 | 0.00 | 0.00 | 63 | 1012.3 | |
| 20260505123230 | 64 | 80 | 0.9 | 0.9 | 0.00 | 0.00 | 0.00 | 67 | 1012.4 |
| 20260505122731 | 64 | 80 | 0.9 | 1.7 | 0.00 | 0.00 | 0.00 | 67 | 1012.4 |
| 20260505122228 | 63 | 104 | 1.7 | 6.1 | 0.00 | 0.00 | 0.00 | 67 | 1012.4 |
| 20260505121729 | 62 | 109 | 3.5 | 6.1 | 0.00 | 0.00 | 0.00 | 67 | 1012.5 |
| 20260505121225 | 62 | 65 | 2.6 | 5.2 | 0.00 | 0.00 | 0.00 | 69 | 1012.4 |
| 20260505121045 | 62 | 51 | 5.2 | 5.2 | 0.00 | 0.00 | 0.00 | 69 | 1012.3 |
| 20260505120418 | 61 | 32 | 1.7 | 2.6 | 0.00 | 0.00 | 0.00 | 68 | 1012.3 |
| 20260505120343 | 62 | 54 | 2.6 | 3.5 | 0.00 | 0.00 | 0.00 | 68 | 1012.3 |
| 20260505115224 | 0 | 102 | 2.6 | 2.6 | 0.00 | 0.00 | 0.00 | 1012.3 | |
| 20260505114716 | 62 | 102 | 2.6 | 2.6 | 0.00 | 0.00 | 0.00 | 68 | 1012.4 |
| 20260505114518 | 0 | 32 | 1.7 | 1.7 | 0.00 | 0.00 | 0.00 | 1012.5 | |
| 20260505113715 | 0 | 353 | 1.7 | 2.6 | 0.00 | 0.00 | 0.00 | 1012.5 | |
| 20260505113213 | 61 | 355 | 2.6 | 54.7 | 0.00 | 0.00 | 0.00 | 71 | 1012.5 |
| 20260505112712 | 61 | 37 | 5.2 | 54.7 | 0.00 | 0.00 | 0.00 | 71 | 1012.5 |
| 20260505112212 | 0 | 78 | 2.6 | 3.5 | 0.00 | 0.00 | 0.00 | 1012.6 | |
| 20260505112056 | 61 | 321 | 3.5 | 3.5 | 0.00 | 0.00 | 0.00 | 71 | 1012.6 |
| 20260505111206 | 61 | 47 | 4.3 | 4.3 | 0.00 | 0.00 | 0.00 | 71 | 1012.6 |
| 20260505110706 | 61 | 47 | 4.3 | 4.3 | 0.00 | 0.00 | 0.00 | 71 | 1012.6 |
| 20260505110202 | 61 | 337 | 4.3 | 5.2 | 0.00 | 0.00 | 0.00 | 71 | 1012.8 |
| 20260505102203 | 60 | 71 | 2.6 | 2.6 | 0.00 | 0.00 | 0.00 | 69 | 1012.9 |
| 20260505101701 | 60 | 35 | 3.5 | 4.3 | 0.00 | 0.00 | 0.00 | 77 | 1012.9 |
| 20260505101201 | 60 | 86 | 3.5 | 4.3 | 0.00 | 0.00 | 0.00 | 77 | 1012.9 |
| 20260505100701 | 60 | 79 | 4.3 | 4.3 | 0.00 | 0.00 | 0.00 | 77 | 1012.9 |
| 20260505100201 | 60 | 35 | 4.3 | 4.3 | 0.00 | 0.00 | 0.00 | 77 | 1012.9 |
| 20260505095707 | 0 | 90 | 3.5 | 3.5 | 0.00 | 0.00 | 0.00 | 1013.0 | |
| 20260505095206 | 59 | 35 | 2.6 | 2.6 | 0.00 | 0.00 | 0.00 | 77 | 1013.0 |
| 20260505094949 | 59 | 4 | 1.7 | 1.7 | 0.00 | 0.00 | 0.00 | 77 | 1013.0 |
| 20260505094448 | 0 | 51 | 1.7 | 1.7 | 0.00 | 0.00 | 0.00 | 1013.1 | |
| 20260505093658 | 0 | 0.0 | 0.0 | 0.00 | 0.00 | 0.00 | 1013.2 | ||
| 20260505093159 | 0 | 0.0 | 0.0 | 0.00 | 0.00 | 0.00 | 1013.3 | ||
| 20260505092701 | 0 | 0.0 | 0.0 | 0.00 | 0.00 | 0.00 | 1013.2 | ||
| 20260505092156 | 0 | 0.0 | 0.0 | 0.00 | 0.00 | 0.00 | 1013.1 | ||
| 20260505091947 | 57 | 0.0 | 0.0 | 0.00 | 0.00 | 0.00 | 82 | 1013.2 | |
| 20260505091157 | 57 | 0.0 | 0.0 | 0.00 | 0.00 | 0.00 | 82 | 1013.3 | |
| 20260505090654 | 56 | 0.0 | 0.0 | 0.00 | 0.00 | 0.00 | 86 | 1013.3 | |
| 20260505090143 | 56 | 0.0 | 0.0 | 0.00 | 0.00 | 0.00 | 86 | 1013.2 | |
| 20260505085642 | 56 | 0.0 | 0.0 | 0.00 | 0.00 | 0.00 | 86 | 1013.4 | |
| 20260505085143 | 55 | 0.0 | 0.0 | 0.00 | 0.00 | 0.00 | 86 | 1013.3 | |
| 20260505084644 | 55 | 0.0 | 0.0 | 0.00 | 0.00 | 0.00 | 88 | 1013.3 | |
| 20260505084143 | 53 | 0.0 | 0.0 | 0.00 | 0.00 | 0.00 | 90 | 1013.3 | |
| 20260505083644 | 53 | 0.0 | 0.0 | 0.00 | 0.00 | 0.00 | 90 | 1013.3 | |
| 20260505083143 | 52 | 0.0 | 0.0 | 0.00 | 0.00 | 0.00 | 90 | 1013.3 | |
| 20260505082642 | 52 | 0.0 | 0.0 | 0.00 | 0.00 | 0.00 | 90 | 1013.2 | |
| 20260505082141 | 52 | 0.0 | 0.0 | 0.00 | 0.00 | 0.00 | 90 | 1013.2 | |
| 20260505081641 | 52 | 0.0 | 0.0 | 0.00 | 0.00 | 0.00 | 90 | 1013.4 | |
| 20260505081139 | 52 | 0.0 | 0.0 | 0.00 | 0.00 | 0.00 | 90 | 1013.4 | |
| 20260505080923 | 52 | 0.0 | 0.0 | 0.00 | 0.00 | 0.00 | 91 | 1013.4 | |
| 20260505080138 | 52 | 0.0 | 0.0 | 0.00 | 0.00 | 0.00 | 91 | 1013.3 | |
| 20260505075632 | 51 | 0.0 | 0.0 | 0.00 | 0.00 | 0.00 | 91 | 1013.3 | |
| 20260505075136 | 51 | 0.0 | 0.0 | 0.00 | 0.00 | 0.00 | 91 | 1013.3 | |
| 20260505074914 | 51 | 0.0 | 0.0 | 0.00 | 0.00 | 0.00 | 91 | 1013.3 | |
| 20260505074416 | 51 | 0.0 | 0.0 | 0.00 | 0.00 | 0.00 | 92 | 1013.3 | |
| 20260505073631 | 51 | 0.0 | 0.0 | 0.00 | 0.00 | 0.00 | 92 | 1013.3 | |
| 20260505073131 | 51 | 0.0 | 0.0 | 0.00 | 0.00 | 0.00 | 92 | 1013.3 | |
| 20260505072634 | 51 | 0.0 | 0.0 | 0.00 | 0.00 | 0.00 | 92 | 1013.4 | |
| 20260505072130 | 51 | 0.0 | 0.0 | 0.00 | 0.00 | 0.00 | 92 | 1013.4 | |
| 20260505071632 | 50 | 0.0 | 0.0 | 0.00 | 0.00 | 0.00 | 92 | 1013.4 | |
| 20260505071133 | 50 | 0.0 | 0.0 | 0.00 | 0.00 | 0.00 | 92 | 1013.4 | |
| 20260505070913 | 50 | 0.0 | 0.0 | 0.00 | 0.00 | 0.00 | 92 | 1013.4 | |
| 20260505070127 | 50 | 0.0 | 0.0 | 0.00 | 0.00 | 0.00 | 92 | 1013.4 | |
| 20260505065630 | 50 | 0.0 | 0.0 | 0.00 | 0.00 | 0.00 | 92 | 1013.4 | |
| 20260505065127 | 50 | 0.0 | 0.0 | 0.00 | 0.00 | 0.00 | 92 | 1013.4 | |
| 20260505064629 | 50 | 0.0 | 0.0 | 0.00 | 0.00 | 0.00 | 92 | 1013.4 | |
| 20260505064128 | 50 | 0.0 | 0.0 | 0.00 | 0.00 | 0.00 | 92 | 1013.5 | |
| 20260505063629 | 50 | 0.0 | 0.0 | 0.00 | 0.00 | 0.00 | 92 | 1013.4 | |
| 20260505063126 | 50 | 0.0 | 0.0 | 0.00 | 0.00 | 0.00 | 92 | 1013.4 | |
| 20260505062626 | 50 | 0.0 | 0.0 | 0.00 | 0.00 | 0.00 | 92 | 1013.5 | |
| 20260505062127 | 50 | 0.0 | 0.0 | 0.00 | 0.00 | 0.00 | 92 | 1013.5 | |
| 20260505061626 | 49 | 0.0 | 0.0 | 0.00 | 0.00 | 0.00 | 91 | 1013.6 | |
| 20260505061124 | 49 | 0.0 | 0.0 | 0.00 | 0.00 | 0.00 | 91 | 1013.5 | |
| 20260505060623 | 49 | 0.0 | 0.0 | 0.00 | 0.00 | 0.00 | 91 | 1013.6 | |
| 20260505060125 | 49 | 0.0 | 0.0 | 0.00 | 0.00 | 0.00 | 91 | 1013.6 | |
| 20260505055623 | 49 | 0.0 | 0.0 | 0.00 | 0.00 | 0.00 | 91 | 1013.5 | |
| 20260505055123 | 49 | 0.0 | 0.0 | 0.00 | 0.00 | 0.00 | 91 | 1013.6 | |
| 20260505054624 | 49 | 0.0 | 0.0 | 0.00 | 0.00 | 0.00 | 91 | 1013.6 | |
| 20260505054413 | 49 | 0.0 | 0.0 | 0.00 | 0.00 | 0.00 | 91 | 1013.7 | |
| 20260505053622 | 49 | 0.0 | 0.0 | 0.00 | 0.00 | 0.00 | 91 | 1013.6 | |
| 20260505053122 | 49 | 0.0 | 0.0 | 0.00 | 0.00 | 0.00 | 91 | 1013.6 | |
| 20260505052624 | 49 | 0.0 | 0.0 | 0.00 | 0.00 | 0.00 | 91 | 1013.7 | |
| 20260505052123 | 49 | 0.0 | 0.0 | 0.00 | 0.00 | 0.00 | 91 | 1013.7 | |
| 20260505051627 | 49 | 0.0 | 0.0 | 0.00 | 0.00 | 0.00 | 91 | 1013.7 | |
| 20260505051408 | 49 | 0.0 | 0.0 | 0.00 | 0.00 | 0.00 | 91 | 1013.7 | |
| 20260505050909 | 49 | 0.0 | 0.0 | 0.00 | 0.00 | 0.00 | 91 | 1013.6 | |
| 20260505050121 | 49 | 0.0 | 0.0 | 0.00 | 0.00 | 0.00 | 91 | 1013.6 | |
| 20260505041617 | 49 | 0.0 | 0.0 | 0.00 | 0.00 | 0.00 | 91 | 1013.7 | |
| 20260505041118 | 49 | 0.0 | 0.0 | 0.00 | 0.00 | 0.00 | 91 | 1013.6 | |
| 20260505040618 | 49 | 0.0 | 0.0 | 0.00 | 0.00 | 0.00 | 90 | 1013.7 | |
| 20260505040117 | 49 | 49 | 0.0 | 0.0 | 0.00 | 0.00 | 0.00 | 90 | 1013.7 |
| 20260505035617 | 48 | 49 | 0.0 | 0.0 | 0.00 | 0.00 | 0.00 | 90 | 1013.8 |
| 20260505035116 | 48 | 49 | 0.0 | 0.0 | 0.00 | 0.00 | 0.00 | 90 | 1013.6 |
| 20260505034913 | 48 | 49 | 0.0 | 0.0 | 0.00 | 0.00 | 0.00 | 90 | 1013.6 |
| 20260505034118 | 48 | 49 | 0.0 | 0.0 | 0.00 | 0.00 | 0.00 | 90 | 1013.6 |
| 20260505033616 | 48 | 49 | 0.0 | 0.0 | 0.00 | 0.00 | 0.00 | 90 | 1013.6 |
| 20260505033118 | 48 | 49 | 0.0 | 0.0 | 0.00 | 0.00 | 0.00 | 89 | 1013.6 |
| 20260505032616 | 48 | 49 | 0.0 | 0.0 | 0.00 | 0.00 | 0.00 | 89 | 1013.7 |
| 20260505032116 | 48 | 49 | 0.0 | 0.0 | 0.00 | 0.00 | 0.00 | 89 | 1013.8 |
| 20260505031615 | 48 | 49 | 0.0 | 0.0 | 0.00 | 0.00 | 0.00 | 89 | 1013.8 |
| 20260505031116 | 48 | 49 | 0.0 | 0.0 | 0.00 | 0.00 | 0.00 | 89 | 1013.8 |
| 20260505030614 | 49 | 49 | 0.0 | 0.0 | 0.00 | 0.00 | 0.00 | 89 | 1013.9 |
| 20260505030115 | 49 | 49 | 0.0 | 0.0 | 0.00 | 0.00 | 0.00 | 89 | 1013.8 |
| 20260505025613 | 49 | 49 | 0.0 | 0.0 | 0.00 | 0.00 | 0.00 | 89 | 1013.8 |
| 20260505025115 | 49 | 49 | 0.0 | 0.0 | 0.00 | 0.00 | 0.00 | 89 | 1013.7 |
| 20260505024614 | 49 | 49 | 0.0 | 1.7 | 0.00 | 0.00 | 0.00 | 89 | 1013.8 |
| 20260505024115 | 49 | 49 | 0.0 | 2.6 | 0.00 | 0.00 | 0.00 | 89 | 1013.7 |
| 20260505023614 | 49 | 49 | 0.0 | 2.6 | 0.00 | 0.00 | 0.00 | 89 | 1013.7 |
| 20260505023116 | 49 | 49 | 0.9 | 1.7 | 0.00 | 0.00 | 0.00 | 89 | 1013.6 |
| 20260505022614 | 49 | 49 | 0.0 | 1.7 | 0.00 | 0.00 | 0.00 | 89 | 1013.7 |
| 20260505022114 | 49 | 49 | 0.0 | 0.0 | 0.00 | 0.00 | 0.00 | 89 | 1013.7 |
| 20260505021614 | 49 | 51 | 0.0 | 0.0 | 0.00 | 0.00 | 0.00 | 89 | 1013.7 |
| 20260505021113 | 50 | 51 | 0.0 | 0.0 | 0.00 | 0.00 | 0.00 | 89 | 1013.8 |
| 20260505020614 | 50 | 54 | 0.0 | 0.0 | 0.00 | 0.00 | 0.00 | 89 | 1013.9 |
| 20260505020116 | 50 | 54 | 0.0 | 0.0 | 0.00 | 0.00 | 0.00 | 89 | 1014.0 |
| 20260505015754 | 50 | 54 | 0.0 | 0.0 | 0.00 | 0.00 | 0.00 | 89 | 1014.0 |
| 20260505015527 | 50 | 54 | 0.0 | 0.0 | 0.00 | 0.00 | 0.00 | 89 | 1014.1 |
| 20260505014112 | 50 | 54 | 0.0 | 0.0 | 0.00 | 0.00 | 0.00 | 89 | 1014.2 |
| 20260505013611 | 50 | 54 | 0.0 | 0.9 | 0.00 | 0.00 | 0.00 | 89 | 1014.2 |
| 20260505013112 | 50 | 54 | 0.0 | 0.9 | 0.00 | 0.00 | 0.00 | 89 | 1014.1 |
| 20260505012613 | 50 | 54 | 0.0 | 0.0 | 0.00 | 0.00 | 0.00 | 89 | 1014.2 |
| 20260505012114 | 50 | 54 | 0.0 | 0.9 | 0.00 | 0.00 | 0.00 | 89 | 1014.2 |
| 20260505011612 | 50 | 54 | 0.0 | 1.7 | 0.00 | 0.00 | 0.00 | 89 | 1014.2 |
| 20260505011241 | 50 | 54 | 0.0 | 1.7 | 0.00 | 0.00 | 0.00 | 89 | 1014.1 |
| 20260505011217 | 50 | 54 | 0.0 | 1.7 | 0.00 | 0.00 | 0.00 | 89 | 1014.1 |
| 20260505010111 | 50 | 54 | 0.0 | 0.9 | 0.00 | 0.00 | 0.00 | 89 | 1014.2 |
| 20260505005904 | 51 | 54 | 0.0 | 1.7 | 0.00 | 0.00 | 0.00 | 89 | 1014.2 |
| 20260505005109 | 51 | 54 | 0.0 | 1.7 | 0.00 | 0.00 | 0.00 | 89 | 1014.3 |
| 20260505004903 | 51 | 47 | 0.0 | 1.7 | 0.00 | 0.00 | 0.00 | 88 | 1014.3 |
| 20260505004108 | 51 | 10 | 0.0 | 2.6 | 0.00 | 0.00 | 0.00 | 88 | 1014.3 |
| 20260505003858 | 51 | 38 | 0.0 | 3.5 | 0.00 | 0.00 | 0.00 | 88 | 1014.4 |
| 20260505003110 | 51 | 62 | 0.9 | 3.5 | 0.00 | 0.00 | 0.00 | 88 | 1014.3 |
| 20260505002608 | 51 | 25 | 0.0 | 1.7 | 0.00 | 0.00 | 0.00 | 89 | 1014.5 |
| 20260505002108 | 51 | 25 | 0.0 | 2.6 | 0.00 | 0.00 | 0.00 | 89 | 1014.6 |
| 20260505001830 | 51 | 42 | 0.9 | 2.6 | 0.00 | 0.00 | 0.00 | 89 | 1014.6 |
| 20260505001109 | 51 | 44 | 0.0 | 1.7 | 0.00 | 0.01 | 0.00 | 89 | 1014.6 |
| 20260505000607 | 51 | 44 | 0.0 | 2.6 | 0.00 | 0.01 | 0.00 | 89 | 1014.8 |
| 20260505000107 | 51 | 44 | 0.9 | 2.6 | 0.00 | 0.02 | 0.00 | 88 | 1015.0 |
| 20260504235609 | 51 | 35 | 0.0 | 2.6 | 0.00 | 0.04 | 0.00 | 88 | 1014.9 |
| 20260504235108 | 51 | 35 | 0.0 | 2.6 | 0.00 | 0.08 | 0.00 | 88 | 1014.9 |
| 20260504234609 | 51 | 38 | 0.0 | 3.5 | 0.00 | 0.09 | 0.00 | 88 | 1014.9 |
| 20260504234409 | 51 | 32 | 1.7 | 3.5 | 0.00 | 0.11 | 0.00 | 88 | 1015.0 |
| 20260504233607 | 51 | 62 | 2.6 | 3.5 | 0.00 | 0.13 | 0.00 | 88 | 1015.0 |
| 20260504233109 | 52 | 58 | 0.9 | 2.6 | 0.00 | 0.13 | 0.00 | 88 | 1015.0 |
| 20260504232907 | 52 | 59 | 0.0 | 3.5 | 0.00 | 0.13 | 0.00 | 88 | 1015.0 |
| 20260504232108 | 52 | 58 | 0.9 | 3.5 | 0.00 | 0.13 | 0.00 | 88 | 1014.8 |
| 20260504231607 | 52 | 59 | 0.0 | 2.6 | 0.00 | 0.13 | 0.00 | 88 | 1014.8 |
| 20260504231118 | 52 | 59 | 1.7 | 2.6 | 0.00 | 0.13 | 0.00 | 88 | 1014.8 |
| 20260504230608 | 52 | 71 | 0.9 | 1.7 | 0.00 | 0.15 | 0.00 | 88 | 1014.8 |
| 20260504230404 | 52 | 71 | 0.0 | 1.7 | 0.00 | 0.15 | 0.00 | 88 | 1014.9 |
| 20260504225903 | 52 | 71 | 0.0 | 2.6 | 0.00 | 0.16 | 0.15 | 88 | 1014.9 |
| 20260504225106 | 52 | 71 | 0.9 | 3.5 | 0.00 | 0.16 | 0.15 | 88 | 1014.9 |
| 20260504224607 | 52 | 71 | 1.7 | 3.5 | 0.00 | 0.17 | 0.15 | 88 | 1014.9 |